When you browse on this site, cookies collect data to enhance your experience and personalize the content and advertising you see.
Visit our Privacy Policy to learn more. By continuing to use the site, you agree to this use of cookies and data.
  • Em Portugal
  • Lista de países
  • Para 7 dias
  • Temperatura da água
  • Mapas de satélite
  • Mapa do tempo
  • Widgets de tempo
  • user-avatar
    Iniciar Sessão

    Previsão horária em Boguszyczki

    Hoje, 24 Abril, Quarta-feira

    Tempo Temperatura Precipitação Vento Pressão Humidade
    00:00 +11°C° 0 mm 7 m/s 752 mmHg 56%
    01:00 +10°C° 0 mm 6 m/s 752 mmHg 61%
    02:00 +10°C° 0 mm 6 m/s 752 mmHg 62%
    03:00 +9°C° 0 mm 6 m/s 752 mmHg 64%
    04:00 +9°C° 0 mm 6 m/s 752 mmHg 66%
    05:00 +9°C° 0 mm 6 m/s 752 mmHg 67%
    06:00 +10°C° 0 mm 7 m/s 752 mmHg 68%
    07:00 +11°C° 0 mm 7 m/s 752 mmHg 68%
    08:00 +12°C° 0 mm 7 m/s 752 mmHg 65%
    09:00 +15°C° 0 mm 8 m/s 751 mmHg 63%
    10:00 +16°C° 0 mm 8 m/s 751 mmHg 60%
    11:00 +17°C° 0 mm 7 m/s 751 mmHg 58%
    12:00 +18°C° 0 mm 7 m/s 751 mmHg 57%
    13:00 +20°C° 0 mm 7 m/s 751 mmHg 55%
    14:00 +20°C° 0 mm 6 m/s 751 mmHg 56%
    15:00 +20°C° 0 mm 6 m/s 751 mmHg 57%
    16:00 +20°C° 0 mm 5 m/s 751 mmHg 58%
    17:00 +19°C° 0 mm 5 m/s 751 mmHg 60%
    18:00 +19°C° 0 mm 5 m/s 751 mmHg 62%
    19:00 +17°C° 0 mm 5 m/s 751 mmHg 64%
    20:00 +17°C° 0 mm 5 m/s 751 mmHg 66%
    21:00 +16°C° 0 mm 5 m/s 751 mmHg 68%
    22:00 +15°C° 0 mm 5 m/s 751 mmHg 70%
    23:00 +14°C° 0 mm 5 m/s 751 mmHg 72%

    Amanhã, 25 Abril, Quinta-feira

    Tempo Temperatura Precipitação Vento Pressão Humidade
    00:00 +14°C° 0 mm 5 m/s 751 mmHg 75%
    01:00 +13°C° 0 mm 5 m/s 751 mmHg 77%
    02:00 +13°C° 0 mm 5 m/s 751 mmHg 78%
    03:00 +13°C° 0 mm 5 m/s 751 mmHg 79%
    04:00 +12°C° 0 mm 5 m/s 751 mmHg 79%
    05:00 +13°C° 0 mm 5 m/s 751 mmHg 77%
    06:00 +15°C° 0 mm 5 m/s 751 mmHg 75%
    07:00 +16°C° 0 mm 5 m/s 751 mmHg 73%
    08:00 +17°C° 0 mm 5 m/s 751 mmHg 68%
    09:00 +20°C° 0 mm 5 m/s 751 mmHg 64%
    10:00 +21°C° 0 mm 6 m/s 751 mmHg 59%
    11:00 +22°C° 0 mm 5 m/s 751 mmHg 57%
    12:00 +22°C° 0 mm 5 m/s 751 mmHg 56%
    13:00 +23°C° 0 mm 5 m/s 751 mmHg 54%
    14:00 +22°C° 0 mm 4 m/s 751 mmHg 55%
    15:00 +22°C° 0 mm 3 m/s 751 mmHg 56%
    16:00 +22°C° 0 mm 3 m/s 751 mmHg 58%
    17:00 +21°C° 0 mm 2 m/s 751 mmHg 64%
    18:00 +20°C° 0 mm 1 m/s 751 mmHg 69%
    19:00 +19°C° 0 mm 1 m/s 751 mmHg 75%
    20:00 +18°C° 0 mm 1 m/s 751 mmHg 78%
    21:00 +16°C° 0 mm 1 m/s 751 mmHg 81%
    22:00 +16°C° 0 mm 2 m/s 751 mmHg 84%
    23:00 +15°C° 0 mm 2 m/s 750 mmHg 86%

    Depois de amanhã, 26 Abril, Sexta-feira

    Tempo Temperatura Precipitação Vento Pressão Humidade
    00:00 +15°C° 0 mm 2 m/s 750 mmHg 87%
    01:00 +15°C° 0 mm 2 m/s 750 mmHg 88%
    02:00 +14°C° 0 mm 2 m/s 750 mmHg 89%
    03:00 +14°C° 0 mm 2 m/s 749 mmHg 89%
    04:00 +14°C° 0 mm 2 m/s 749 mmHg 90%
    05:00 +15°C° 0 mm 2 m/s 749 mmHg 83%
    06:00 +16°C° 0 mm 3 m/s 749 mmHg 77%
    07:00 +18°C° 0 mm 3 m/s 748 mmHg 70%
    08:00 +19°C° 0 mm 3 m/s 748 mmHg 64%
    09:00 +21°C° 0 mm 3 m/s 748 mmHg 59%
    10:00 +24°C° 0 mm 3 m/s 748 mmHg 53%
    11:00 +24°C° 0 mm 3 m/s 747 mmHg 50%
    12:00 +25°C° 0 mm 4 m/s 747 mmHg 48%
    13:00 +26°C° 0 mm 4 m/s 747 mmHg 45%
    14:00 +26°C° 0 mm 4 m/s 746 mmHg 46%
    15:00 +26°C° 0 mm 3 m/s 746 mmHg 46%
    16:00 +26°C° 0 mm 3 m/s 746 mmHg 46%
    17:00 +24°C° 0 mm 2 m/s 746 mmHg 52%
    18:00 +21°C° 0 mm 2 m/s 746 mmHg 59%
    19:00 +20°C° 0 mm 1 m/s 746 mmHg 65%
    20:00 +20°C° 0 mm 1 m/s 746 mmHg 66%
    21:00 +19°C° 0 mm 1 m/s 746 mmHg 68%
    22:00 +18°C° 0 mm 1 m/s 746 mmHg 70%
    23:00 +18°C° 0 mm 1 m/s 746 mmHg 72%

    27 Abril, Sábado

    Tempo Temperatura Precipitação Vento Pressão Humidade
    00:00 +17°C° 0 mm 2 m/s 746 mmHg 74%
    01:00 +16°C° 0 mm 2 m/s 746 mmHg 76%
    02:00 +14°C° 0.3 mm 3 m/s 747 mmHg 83%
    03:00 +14°C° 0.3 mm 4 m/s 747 mmHg 89%
    04:00 +13°C° 0.3 mm 5 m/s 747 mmHg 95%
    05:00 +13°C° 0.2 mm 5 m/s 747 mmHg 93%
    06:00 +14°C° 0.2 mm 5 m/s 748 mmHg 91%
    07:00 +14°C° 0.2 mm 6 m/s 748 mmHg 88%
    08:00 +13°C° 0.1 mm 6 m/s 748 mmHg 88%
    09:00 +13°C° 0.1 mm 6 m/s 748 mmHg 87%
    10:00 +13°C° 0.1 mm 6 m/s 749 mmHg 86%
    11:00 +13°C° 0 mm 6 m/s 749 mmHg 83%
    12:00 +13°C° 0 mm 5 m/s 749 mmHg 81%
    13:00 +14°C° 0 mm 5 m/s 749 mmHg 78%
    14:00 +14°C° 0 mm 5 m/s 749 mmHg 77%
    15:00 +14°C° 0 mm 5 m/s 749 mmHg 76%
    16:00 +14°C° 0 mm 4 m/s 749 mmHg 75%
    17:00 +13°C° 0 mm 4 m/s 749 mmHg 74%
    18:00 +13°C° 0 mm 4 m/s 749 mmHg 74%
    19:00 +13°C° 0 mm 3 m/s 749 mmHg 74%
    20:00 +11°C° 0 mm 3 m/s 749 mmHg 78%
    21:00 +10°C° 0 mm 3 m/s 750 mmHg 82%
    22:00 +9°C° 0 mm 2 m/s 750 mmHg 86%
    23:00 +9°C° 0 mm 2 m/s 750 mmHg 85%

    28 Abril, Domingo

    Tempo Temperatura Precipitação Vento Pressão Humidade
    00:00 +8°C° 0 mm 3 m/s 750 mmHg 84%
    01:00 +8°C° 0 mm 3 m/s 750 mmHg 82%
    02:00 +8°C° 0 mm 3 m/s 750 mmHg 80%
    03:00 +8°C° 0 mm 3 m/s 750 mmHg 79%
    04:00 +8°C° 0 mm 3 m/s 750 mmHg 77%
    05:00 +9°C° 0 mm 3 m/s 751 mmHg 76%
    06:00 +8°C° 0 mm 4 m/s 751 mmHg 75%
    07:00 +9°C° 0 mm 5 m/s 751 mmHg 73%
    08:00 +12°C° 0 mm 5 m/s 751 mmHg 69%
    09:00 +13°C° 0 mm 5 m/s 752 mmHg 64%
    10:00 +15°C° 0 mm 5 m/s 752 mmHg 60%
    11:00 +15°C° 0 mm 5 m/s 752 mmHg 57%
    12:00 +16°C° 0 mm 5 m/s 752 mmHg 55%
    13:00 +17°C° 0 mm 5 m/s 752 mmHg 53%
    14:00 +16°C° 0.1 mm 5 m/s 752 mmHg 56%
    15:00 +17°C° 0.1 mm 4 m/s 752 mmHg 60%
    16:00 +15°C° 0.1 mm 4 m/s 752 mmHg 64%
    17:00 +14°C° 0.3 mm 4 m/s 752 mmHg 71%
    18:00 +13°C° 0.3 mm 4 m/s 752 mmHg 77%
    19:00 +12°C° 0.3 mm 4 m/s 753 mmHg 83%
    20:00 +12°C° 0.2 mm 4 m/s 753 mmHg 85%
    21:00 +11°C° 0.2 mm 4 m/s 753 mmHg 86%
    22:00 +11°C° 0.2 mm 4 m/s 753 mmHg 88%
    23:00 +11°C° 0 mm 4 m/s 753 mmHg 89%

    29 Abril, Segunda-feira

    Tempo Temperatura Precipitação Vento Pressão Humidade
    00:00 +10°C° 0 mm 4 m/s 753 mmHg 90%
    01:00 +10°C° 0 mm 4 m/s 753 mmHg 91%
    02:00 +10°C° 0.1 mm 4 m/s 753 mmHg 91%
    03:00 +10°C° 0.1 mm 4 m/s 753 mmHg 92%
    04:00 +10°C° 0.1 mm 4 m/s 752 mmHg 93%
    05:00 +10°C° 0.1 mm 4 m/s 752 mmHg 92%
    06:00 +10°C° 0.1 mm 4 m/s 752 mmHg 91%
    07:00 +11°C° 0.1 mm 4 m/s 752 mmHg 90%
    08:00 +11°C° 0.2 mm 4 m/s 753 mmHg 91%
    09:00 +12°C° 0.2 mm 4 m/s 753 mmHg 91%
    10:00 +12°C° 0.2 mm 4 m/s 753 mmHg 92%
    11:00 +13°C° 0.2 mm 4 m/s 753 mmHg 89%
    12:00 +13°C° 0.2 mm 5 m/s 753 mmHg 87%
    13:00 +14°C° 0.2 mm 5 m/s 753 mmHg 84%
    14:00 +14°C° 0.1 mm 5 m/s 753 mmHg 83%
    15:00 +14°C° 0.1 mm 5 m/s 753 mmHg 81%
    16:00 +14°C° 0.1 mm 5 m/s 753 mmHg 80%
    17:00 +13°C° 0 mm 5 m/s 753 mmHg 81%
    18:00 +13°C° 0 mm 4 m/s 753 mmHg 82%
    19:00 +12°C° 0 mm 4 m/s 754 mmHg 84%
    20:00 +12°C° 0 mm 4 m/s 754 mmHg 83%
    21:00 +12°C° 0 mm 4 m/s 754 mmHg 83%
    22:00 +11°C° 0 mm 4 m/s 755 mmHg 82%
    23:00 +11°C° 0 mm 4 m/s 755 mmHg 79%
    Mostrar mais